Погода в Кривячке

Россия / Костромская область     58°39′44″N   45°27′18″E
темп.,
°C
ветер,
м/с
пор.,
м/с
влажн.,
%
обл.,
%
осадки,
мм/ч
давл.,
гПа
погр.,
м
7 августа, вс
вс700:00+18ююв22695 0.0 102030
03:00+18ю2479100 0.0 102073
06:00+19ююв25806 0.0 1020163
09:00+24ю35575 0.0 1019522
12:00+28ююз45425 0.0 10181790
15:00+29ююз354299 0.0 10172383
18:00+24ю3857100 0.0 1017277
21:00+20ю288221 0.0 1017164
8 августа, пн
пн800:00+18зсз229765 2.1 101965
03:00+16зсз24986 2.1 101977
06:00+17ссз249741 0.0 1020173
09:00+19с2284100 0.1 1021608
12:00+23ссз126212 0.0 1021916
15:00+25с115336 0.0 10201435
18:00+21сз248040 0.4 102080
21:00+15ссв399621 2.4 1022237
9 августа, вт
вт900:00+14ссв279743 0.6 1022180
03:00+13ссв279765 0.9 1022169
06:00+14св2696100 0.4 1022208
09:00+18всв348575 1.0 1022430
12:00+22всв337186 1.0 1021798
15:00+20ссз3490100 3.9 1020177
18:00+16ссв4897100 3.1 1020329
21:00+14ссв379994 3.1 1019271
10 августа, ср
ср1000:00+14с2299100 0.3 1020135
03:00+14св2499100 4.2 1018164
06:00+15ссз2399100 5.3 1018207
09:00+16с249591 5.8 1018373
12:00+18с2378100 0.1 1018750
15:00+17ссв2380100 0.1 1018509
18:00+16ссв2486100 0.1 1018309
21:00+14ссв2590100 0.1 1018309
11 августа, чт
чт1100:00+12с2598100 0.0 1018188
03:00+13с2690100 0.0 1018436
06:00+12ссз3889100 0.1 1019499
09:00+16с476475 0.1 1019862
12:00+19с475075 0.0 10191637
15:00+21ссз3641100 0.0 10192504
18:00+17зсз246387 0.0 101976
21:00+15з287099 0.0 1020188